Regional Weather Roundup
Issued by NWS

Home | Current Version | Previous Version | Graphics & Text | Print | Product List | Glossary On
Versions: 1 2 3 4 5 6 7 8 9 10 11 12 13 14 15 16 17 18 19 20 21 22 23 24 25 26 27 28 29 30 31 32 33 34 35 36 37 38 39 40 41 42 43 44 45 46 47 48 49 50
000
ASUS43 KMPX 091810
RWRMN
WEATHER ROUNDUP FOR MINNESOTA
NATIONAL WEATHER SERVICE TWIN CITIES/CHANHASSEN MN
1200 PM CST FRI DEC 09 2016


NOTE: "FAIR" INDICATES FEW OR NO CLOUDS BELOW 12,000 FEET WITH NO
SIGNIFICANT WEATHER AND/OR OBSTRUCTIONS TO VISIBILITY. N/A MEANS
CURRENT SKY AND/OR WEATHER CONDITIONS ARE NOT AVAILABLE.

MNZ060>063-068>070-091900-
   Twin Cities Metro

CITY           SKY/WX    TMP DP  RH WIND       PRES   REMARKS
TWIN CITIES    PTSUNNY   17   8  67 SW9       30.54F WCI   6
6HR MIN TEMP:  13; 6HR MAX TEMP:  17; 6HR PCP: TRACE;

ST PAUL        CLOUDY    18  10  71 W9        30.56F WCI   7
CRYSTAL        PTSUNNY   16   7  67 SW9       30.53F WCI   4
BLAINE         FLURRIES  18  10  73 W8        30.53F WCI   7
LAKEVILLE      FLURRIES  12   9  85 W7        30.54F WCI   2
EDEN PRAIRIE   MOSUNNY   16   7  67 W9        30.54F WCI   4
6HR MIN TEMP:  11; 6HR MAX TEMP:  17;

SOUTH ST PAUL  MOSUNNY   18   9  69 SW8       30.55S WCI   7
LAKE ELMO      FLURRIES  19  12  73 W10       30.54S WCI   8
$$
MNZ001>005-007-008-013>017-022>024-027-028-091900-
   Northwest Minnesota

CITY           SKY/WX    TMP DP  RH WIND       PRES   REMARKS
BEMIDJI        CLOUDY     7  -1  71 W7        30.48F WCI  -5
HALLOCK        CLOUDY     3  -4  72 NW5       30.57F WCI  -6
ROSEAU         CLOUDY     3  -4  72 W9        30.53S WCI -11
WARROAD        CLOUDY     3  -4  72 W9        30.51S HAZE    WCI -11
THIEF RVR FALL FLURRIES   7   2  80 NW7       30.54F WCI  -5
CROOKSTON      CLOUDY     7   1  78 NW10      30.58S WCI  -8
FOSSTON        CLOUDY     7   0  72 W8        30.51F WCI  -6
DETROIT LAKES  LGT SNOW   9   3  78 NW8       30.51F WCI  -4
MOORHEAD       MOSUNNY    3  -2  78 NW8       30.58F WCI -10
PARK RAPIDS    LGT SNOW   9  -1  64 W8        30.48F WCI  -3
$$
MNZ006-009>011-018-025>026-091900-
   North Central Minnesota

CITY           SKY/WX    TMP DP  RH WIND       PRES   REMARKS
BAUDETTE       CLOUDY     4  -6  63 W12       30.48F WCI -12
FLAG ISLAND    CLOUDY     3   0  85 W13       30.48F WCI -14
INTL FALLS     LGT SNOW   6  -3  66 W13       30.46F WCI -10
6HR MIN TEMP:   5; 6HR MAX TEMP:   7; 6HR PCP:  0.01;

WASKISH        CLOUDY     7   1  78 NW7       30.49F WCI  -5
BIG FORK       FLURRIES   7  -2  66 NW5       30.47S WCI  -2
LONGVILLE      CLOUDY     9   0  66 W7        30.49S WCI  -3
GRAND RAPIDS   CLOUDY     9  -1  64 NW7       30.49F WCI  -2
CRANE LAKE     CLOUDY     5   0  78 W3        30.47F
ORR            CLOUDY     5  -6  61 CALM      30.42F
COOK           CLOUDY     5  -2  72 W8        30.45F WCI  -8
$$
MNZ012-019>021-037-091900-
   Northeast Minnesota

CITY           SKY/WX    TMP DP  RH WIND       PRES   REMARKS
DULUTH         CLOUDY     9   1  70 NW12      30.43F WCI  -6
6HR MIN TEMP:   8; 6HR MAX TEMP:  12;

ELY            CLOUDY     7   0  72 W10       30.41F WCI  -8
HIBBING        LGT SNOW   4  -3  73 NW10      30.46S WCI -11
EVELETH        PTSUNNY    6  -3  64 W12       30.46S WCI  -9
DULUTH HARBOR  CLOUDY    16   3  57 W13       30.52F WCI   2
TWO HARBORS    MOSUNNY   14   3  62 NW6       30.43F WCI   5
SILVER BAY     CLOUDY    14   3  62 W5        30.42S WCI   6
GRAND MARAIS     N/A     20   7  57 W3        30.43F
G MARAIS ARPRT CLOUDY    10   0  61 W5        30.33F WCI   2
$$
MNZ029>031-032-039>041-046>048-054>057-064-091900-
   West Central Minnesota

CITY           SKY/WX    TMP DP  RH WIND       PRES   REMARKS
FERGUS FALLS   CLOUDY     5   0  78 NW7       30.60F HAZE    WCI  -7
WHEATON        CLOUDY     7   1  78 NW6       30.59F WCI  -3
MORRIS         CLOUDY     5   0  78 W6        30.55F WCI  -6
ALEXANDRIA       N/A      7   2  80 W8        30.52F WCI  -6
ELBOW LAKE     CLOUDY     4   0  83 W7        30.55F HAZE    WCI  -8
WADENA         FLURRIES   9   1  72 W7        30.50F WCI  -3
GLENWOOD       CLOUDY     7   1  78 W7        30.52F WCI  -5
APPLETON       SUNNY      9   0  66 W8        30.58F WCI  -4
BENSON         FLURRIES   9   1  72 NW7       30.56F WCI  -3
ORTONVILLE     MOSUNNY    7  -2  66 NW7       30.56F WCI  -5
MADISON        SUNNY     10   1  67 NW7       30.57F WCI   0
WILLMAR        LGT SNOW   9   3  78 NW8       30.56F WCI  -4
$$
MNZ033>034-036-042>043-049>051-058-059-091900-
   Central Minnesota

CITY           SKY/WX    TMP DP  RH WIND       PRES   REMARKS
ST CLOUD       CLOUDY    13   7  77 W7        30.53F WCI   3
6HR MIN TEMP:   5; 6HR MAX TEMP:  13;

PAYNESVILLE    CLOUDY    11   5  77 W8        30.54F HAZE    WCI  -1
AITKIN         MIX PCPN  14   1  57 CALM      30.47F
PINE RIVER     CLOUDY     9   1  72 W5        30.52S WCI   0
BRAINERD       FLURRIES  10   3  73 W9        30.50F WCI  -3
STAPLES        CLOUDY     9   1  72 W6        30.50F WCI  -1
LONG PRAIRIE   LGT SNOW  10   3  72 SW3       30.51F
LITTLE FALLS   CLOUDY    12   3  67 W9        30.52F WCI   0
LITCHFIELD     PTSUNNY   12   7  79 W5        30.54F WCI   4
BUFFALO        FLURRIES  15   8  73 W8        30.55F WCI   4
MAPLE LAKE     FLURRIES  16  10  77 NW9       30.54F WCI   4
HUTCHINSON     FLURRIES  14   8  79 W8        30.55F WCI   2
$$
MNZ037-044-045-052-053-091900-
   East Central Minnesota

CITY           SKY/WX    TMP DP  RH WIND       PRES   REMARKS
PRINCETON      CLOUDY    16  10  79 SW8       30.52F WCI   5
MORA           PTSUNNY   18   9  68 CALM      30.51F
CAMBRIDGE      FLURRIES  18   9  68 NW7       30.50F WCI   8
RUSH CITY      CLOUDY    18  10  73 NW7       30.51F WCI   8
MOOSE LAKE     CLOUDY    14   3  62 W8        30.47F WCI   3
HINCKLEY       FLURRIES  18  10  73 CALM      30.49F
CLOQUET        CLOUDY    10   0  61 NW9       30.45F WCI  -2
MCGREGOR       CLOUDY    12   5  73 NW6       30.48F WCI   3
$$
MNZ071>073-080-081-089-090-097-098-091900-
   Southwest Minnesota

CITY           SKY/WX    TMP DP  RH WIND       PRES   REMARKS
MONTEVIDEO     CLOUDY     9   3  78 NW5       30.59F WCI   0
GRANITE FALLS  CLOUDY    10   5  80 W7        30.60F HAZE    WCI  -1
CANBY          SUNNY     10   0  63 W9        30.57F WCI  -3
MARSHALL       PTSUNNY    8   1  73 NW7       30.56F WCI  -3
REDWOOD FALLS  LGT SNOW   9   3  77 NW7       30.57F WCI  -2
OLIVIA         CLOUDY    12   7  79 W8        30.56F WCI   1
PIPESTONE      MOSUNNY    9   1  72 CALM      30.50F
WINDOM         MOSUNNY   12   7  79 CALM      30.52F
WORTHINGTON    MOSUNNY   11   6  81 NW5       30.52F WCI   3
JACKSON        SUNNY     12   7  79 W5        30.52F WCI   4
TRACY          PTSUNNY   11   5  77 NW5       30.54F WCI   3
SLAYTON        CLOUDY     8   3  78 NW5       30.53F WCI   0
$$
MNZ065>067-074>077-082>085-091>093-091900-
   South Central Minnesota

CITY           SKY/WX    TMP DP  RH WIND       PRES   REMARKS
MANKATO        FLURRIES  12   6  77 NW8       30.56F WCI   0
NEW ULM        FLURRIES  10   3  72 W7        30.57F WCI   0
ST JAMES       FLURRIES  12   7  79 W6        30.57F WCI   3
FAIRMONT       SUNNY     13   7  77 NW5       30.56F WCI   5
GLENCOE        FLURRIES  16  11  81 W6        30.54F WCI   7
OWATONNA       FLURRIES  14   9  79 W8        30.53F WCI   3
WASECA         FLURRIES  12   9  85 W10       30.56F WCI  -1
ALBERT LEA     MOSUNNY   18  10  73 W7        30.53F WCI   8
$$
MNZ078>079-086>088-094>096-091900-
   Southeast Minnesota

CITY           SKY/WX    TMP DP  RH WIND       PRES   REMARKS
ROCHESTER      SUNNY     13   9  84 SW8       30.51F WCI   2
6HR MIN TEMP:   6; 6HR MAX TEMP:  13;

RED WING       FLURRIES  18  10  73 CALM      30.54F
STANTON        SUNNY     16   9  74 W8        30.54F WCI   5
DODGE CENTER   PTSUNNY   14  10  85 SW9       30.51F WCI   2
WINONA         SUNNY     21  12  68 SW5       30.55F WCI  15
AUSTIN         SUNNY     16   9  73 W7        30.52F WCI   6
PRESTON        SUNNY     14   8  77 W7        30.53S WCI   3
$$
ABBREVIATIONS USED IN REMARKS
   TC - TEMPERATURES IN CELSIUS
  WCI - WIND CHILL INDEX
   HX - HEAT INDEX
  VSB - VISIBILITY
$$



USA.gov is the U.S. government's official web portal to all federal, state and local government web resources and services.